MDT,Max TemperatureF,Mean TemperatureF,Min TemperatureF,Max Dew PointF,MeanDew PointF,Min DewpointF,Max Humidity, Mean Humidity, Min Humidity, Max Sea Level PressureIn, Mean Sea Level PressureIn, Min Sea Level PressureIn, Max VisibilityMiles, Mean VisibilityMiles, Min VisibilityMiles, Max Wind SpeedMPH, Mean Wind SpeedMPH, Max Gust SpeedMPH,PrecipitationIn, CloudCover, Events, WindDirDegrees
2012-10-1,69,58,46,54,40,30,93,59,24,30.28,30.14,29.98,10,10,8,18,8,24,0.00,2,Rain,336
2012-10-2,90,66,41,37,35,31,65,40,15,29.96,29.75,29.65,10,10,10,16,6,20,0.00,0,,164
2012-10-3,67,53,39,41,36,32,92,61,30,30.27,29.93,29.63,10,10,7,38,19,48,T,4,,349
2012-10-4,52,40,27,34,30,24,92,65,38,30.42,30.36,30.27,10,10,10,23,12,28,T,5,Rain,330
2012-10-5,51,37,22,25,22,18,88,60,32,30.44,30.40,30.36,10,10,10,17,8,23,0.00,2,,304
2012-10-6,48,34,19,21,16,11,84,54,23,30.49,30.40,30.25,10,10,10,16,6,21,0.00,1,,289
2012-10-7,64,44,23,30,25,20,88,58,27,30.23,30.03,29.83,10,10,10,24,10,32,0.00,1,,285
2012-10-8,64,52,39,46,36,26,86,61,35,29.88,29.81,29.74,10,10,10,28,12,33,0.05,6,Rain,287
2012-10-9,50,39,27,41,29,20,85,64,42,30.18,30.07,29.90,10,10,10,25,12,32,0.00,5,Rain,299
2012-10-10,71,51,31,33,29,27,82,51,20,30.17,30.00,29.81,10,10,10,24,5,29,0.00,2,,264
2012-10-11,50,40,29,34,30,25,85,66,46,30.40,30.27,29.98,10,10,10,18,9,23,0.00,3,,48
2012-10-12,72,51,30,41,32,25,85,55,25,30.35,29.98,29.67,10,10,10,32,13,39,0.00,0,,159
2012-10-13,77,60,42,38,34,31,71,45,19,29.92,29.73,29.61,10,10,10,25,10,30,0.00,1,,334
2012-10-14,74,57,39,39,34,31,70,47,23,30.03,29.97,29.94,10,10,10,29,13,37,0.00,1,,297
2012-10-15,82,60,37,42,32,28,70,43,15,29.93,29.76,29.64,10,10,10,17,6,22,0.00,0,,302
2012-10-16,76,61,46,51,41,36,100,62,23,29.68,29.47,29.26,10,10,10,38,13,46,0.05,3,Rain,259
2012-10-17,59,52,45,45,26,18,56,40,23,29.72,29.59,29.42,10,10,10,47,34,60,T,2,Rain,303
2012-10-18,54,46,38,30,27,20,64,51,37,30.00,29.84,29.70,10,10,5,52,31,66,0.00,3,,317
2012-10-19,58,42,26,30,24,18,92,59,26,30.00,29.87,29.70,10,10,10,23,7,26,0.00,0,,281
2012-10-20,81,55,29,30,26,18,69,42,15,29.70,29.56,29.47,10,10,10,15,5,21,0.00,0,,131
2012-10-21,64,51,38,44,37,30,80,59,37,29.99,29.83,29.53,10,10,10,25,13,31,0.00,0,,7
2012-10-22,54,44,33,42,36,29,89,75,61,30.02,29.92,29.74,10,10,9,16,7,20,0.00,6,,99
2012-10-23,63,54,44,49,44,38,92,70,48,29.91,29.71,29.61,10,10,9,25,9,31,0.03,4,Rain,63
2012-10-24,44,39,33,43,35,30,96,89,82,30.12,30.02,29.90,10,7,2,18,8,68,0.46,8,Rain-Snow,348
2012-10-25,34,31,28,30,24,19,89,76,63,30.45,30.29,30.11,10,10,10,26,17,33,0.00,6,,317
2012-10-26,40,32,24,25,21,19,85,67,48,30.52,30.43,30.27,10,10,10,24,11,30,0.00,6,,270
2012-10-27,48,34,20,30,24,19,96,71,45,30.27,30.20,30.13,10,10,10,9,3,14,0.00,1,,43
2012-10-28,49,36,23,37,30,22,100,81,61,30.19,30.09,29.99,10,7,0,14,7,17,0.00,5,Fog,92
2012-10-29,70,51,31,40,36,30,100,66,31,30.05,29.98,29.92,10,10,7,15,6,23,0.00,4,,103
2012-10-30,71,54,36,43,38,34,92,63,33,30.03,29.99,29.93,10,10,10,9,6,,0.00,1,,289
2012-10-31,75,54,33,43,37,32,96,60,23,30.09,30.00,29.92,10,10,6,18,8,24,0.00,1,,294